Weather History for Norwood, MA

Change the Weather History Date:

Friday, April 12, 2013

  Actual Average Record
Temperature  
Mean Temperature 40 °F -  
Max Temperature 43 °F 56 °F 73 °F (2008)
Min Temperature 37 °F 34 °F 27 °F (2002)
Degree Days  
Heating Degree Days 25    
Moisture  
Dew Point 36 °F    
Average Humidity 88    
Maximum Humidity 100    
Minimum Humidity 65    
Precipitation  
Precipitation 0.38 in - - ()
Sea Level Pressure  
Sea Level Pressure 30.00 in    
Wind  
Wind Speed 9 mph (ENE)    
Max Wind Speed 23 mph    
Max Gust Speed 30 mph    
Visibility 6 miles    
Events Rain    
Averages and records for this station are not official NWS values.
T = Trace of Precipitation, MM = Missing Value Source: NWS Daily Summary

Daily Weather History Graph

Daily Weather History Graph

Search for Another Location

Airport:

Trip Planner

Search our weather history database for the weather conditions in past years. The results will help you decide how hot, cold, wet, or windy it might be!

Date:

Astronomy

Apr. 12, 2013 Rise Set
Actual Time 6:08 AM EDT 7:22 PM EDT
Civil Twilight 5:39 AM EDT 7:51 PM EDT
Nautical Twilight 5:05 AM EDT 8:26 PM EDT
Astronomical Twilight 4:28 AM EDT 9:03 PM EDT
Moon 7:13 AM EDT (4/12) 9:53 PM EDT (4/12)
Length of Visible Light 14h 12m
Length of Day
13h 14m
Waxing Crescent, 5% of the Moon is Illuminated
Apr 12
Waxing Crescent
Apr 18
First Quarter
Apr 25
Full
May 2
Last Quarter
May 9
New

Hourly Weather History & Observations

Time (EDT) Temp. Windchill Dew Point Humidity Pressure Visibility Wind Dir Wind Speed Gust Speed Precip Events Conditions
12:53 AM 43.0 °F 40.3 °F 39.0 °F 86% 30.16 in 10.0 mi NE 4.6 mph - 0.01 in Rain Light Rain
1:09 AM 42.8 °F 39.3 °F 37.4 °F 81% 30.15 in 10.0 mi East 5.8 mph - 0.00 in Rain Light Rain
1:53 AM 41.0 °F 38.0 °F 39.0 °F 93% 30.14 in 8.0 mi East 4.6 mph - 0.03 in Rain Light Rain
2:53 AM 39.9 °F 35.8 °F 37.9 °F 93% 30.14 in 10.0 mi East 5.8 mph - 0.05 in   Overcast
3:53 AM 39.9 °F 37.8 °F 37.9 °F 93% 30.15 in 10.0 mi NE 3.5 mph - 0.00 in   Overcast
4:53 AM 39.9 °F 35.8 °F 37.0 °F 89% 30.14 in 10.0 mi NE 5.8 mph - N/A   Overcast
5:53 AM 39.9 °F 34.5 °F 34.0 °F 79% 30.13 in 10.0 mi East 8.1 mph - N/A   Overcast
6:53 AM 39.9 °F 32.9 °F 35.1 °F 83% 30.14 in 10.0 mi ENE 11.5 mph - N/A   Overcast
7:08 AM 41.0 °F 35.2 °F 33.8 °F 76% 30.15 in 10.0 mi East 9.2 mph - N/A   Overcast
7:53 AM 41.0 °F 34.3 °F 32.0 °F 70% 30.14 in 10.0 mi East 11.5 mph 17.3 mph N/A   Overcast
8:53 AM 41.0 °F 33.1 °F 30.9 °F 67% 30.13 in 10.0 mi East 15.0 mph 23.0 mph N/A   Overcast
9:53 AM 41.0 °F 31.1 °F 30.0 °F 65% 30.09 in 10.0 mi East 23.0 mph 29.9 mph N/A   Overcast
10:53 AM 41.0 °F 32.8 °F 32.0 °F 70% 30.07 in 10.0 mi East 16.1 mph 24.2 mph 0.00 in Rain Light Rain
11:53 AM 41.0 °F 35.2 °F 33.1 °F 73% 30.05 in 9.0 mi East 9.2 mph 18.4 mph 0.00 in Rain Light Rain
12:53 PM 39.0 °F 31.8 °F 35.1 °F 86% 30.03 in 3.0 mi ESE 11.5 mph 21.9 mph 0.08 in Rain Light Rain
1:05 PM 39.2 °F 32.0 °F 35.6 °F 87% 30.03 in 2.5 mi East 11.5 mph 19.6 mph 0.03 in Rain Light Rain
1:20 PM 37.4 °F 30.8 °F 35.6 °F 93% 30.02 in 3.0 mi East 9.2 mph - 0.06 in Rain Rain
1:29 PM 37.4 °F 31.4 °F 35.6 °F 93% 30.02 in 3.0 mi East 8.1 mph - 0.09 in Rain Light Rain
1:53 PM 39.0 °F 34.0 °F 37.0 °F 93% 30.01 in 4.0 mi East 6.9 mph - 0.11 in Rain Light Rain
2:53 PM 37.9 °F 31.5 °F 36.0 °F 93% 29.98 in 4.0 mi East 9.2 mph - 0.02 in Rain Light Rain
3:53 PM 39.0 °F 31.8 °F 37.0 °F 93% 29.92 in 10.0 mi East 11.5 mph - 0.03 in   Overcast
4:53 PM 39.0 °F 34.0 °F 37.0 °F 93% 29.91 in 2.5 mi ENE 6.9 mph - 0.00 in Rain Light Rain
5:29 PM 39.2 °F 35.0 °F 37.4 °F 93% 29.88 in 2.5 mi ENE 5.8 mph - 0.01 in Rain Light Rain
5:53 PM 39.0 °F 33.4 °F 37.9 °F 96% 29.88 in 2.5 mi NE 8.1 mph - 0.01 in Rain Light Rain
6:53 PM 39.9 °F 33.9 °F 37.9 °F 93% 29.85 in 3.0 mi ENE 9.2 mph 17.3 mph 0.03 in Rain Light Rain
7:53 PM 39.9 °F 34.5 °F 39.0 °F 97% 29.82 in 6.0 mi NE 8.1 mph 17.3 mph 0.00 in Rain Light Rain
8:53 PM 39.9 °F 32.1 °F 39.0 °F 97% 29.81 in 2.5 mi NE 13.8 mph 20.7 mph 0.00 in Rain Light Rain
9:11 PM 39.2 °F 31.6 °F 39.2 °F 100% 29.81 in 3.0 mi NE 12.7 mph 21.9 mph 0.00 in Rain Light Rain
9:51 PM 39.2 °F 31.2 °F 39.2 °F 100% 29.80 in 2.5 mi NNE 13.8 mph 21.9 mph 0.00 in Rain Light Rain
9:53 PM 39.9 °F 32.5 °F 39.0 °F 97% 29.80 in 2.5 mi NNE 12.7 mph 21.9 mph 0.00 in Rain Light Rain
10:53 PM 39.9 °F 32.5 °F 39.0 °F 97% 29.78 in 3.0 mi NE 12.7 mph 20.7 mph 0.01 in Rain Light Rain
11:53 PM 39.9 °F 32.5 °F 37.9 °F 93% 29.78 in 2.5 mi NNE 12.7 mph 18.4 mph 0.00 in Rain Light Rain